TimeMDT,TemperatureF,Dew PointF,Humidity,Sea Level PressureIn,VisibilityMPH,Wind Direction,Wind SpeedMPH,Gust SpeedMPH,PrecipitationIn,Events,Conditions,WindDirDegrees,DateUTC
12:56 AM,47.8,36.9,66,29.65,10.0,ESE,4.6,-,N/A,,Clear,110,2013-06-24 06:56:00
1:56 AM,48.9,36.0,61,29.62,10.0,ENE,5.8,-,N/A,,Clear,60,2013-06-24 07:56:00
2:56 AM,50.0,34.9,56,29.59,10.0,ESE,5.8,-,N/A,,Clear,110,2013-06-24 08:56:00
3:56 AM,48.9,32.9,54,29.57,10.0,ESE,4.6,-,N/A,,Clear,120,2013-06-24 09:56:00
4:56 AM,45.9,32.9,61,29.58,10.0,NNE,3.5,-,N/A,,Clear,20,2013-06-24 10:56:00
5:56 AM,45.0,32.9,63,29.60,10.0,ENE,3.5,-,N/A,,Clear,70,2013-06-24 11:56:00
6:56 AM,52.0,34.9,52,29.59,10.0,SSE,10.4,-,N/A,,Clear,150,2013-06-24 12:56:00
7:56 AM,57.9,36.9,45,29.59,10.0,South,6.9,-,N/A,,Clear,180,2013-06-24 13:56:00
8:56 AM,61.0,36.9,41,29.61,10.0,South,8.1,-,N/A,,Clear,190,2013-06-24 14:56:00
9:56 AM,63.9,41.0,43,29.64,10.0,SSE,5.8,-,N/A,,Clear,150,2013-06-24 15:56:00
10:56 AM,70.0,36.9,30,29.62,10.0,Variable,4.6,-,N/A,,Clear,0,2013-06-24 16:56:00
11:56 AM,72.9,36.0,26,29.63,10.0,WSW,8.1,16.1,N/A,,Partly Cloudy,240,2013-06-24 17:56:00
12:25 PM,71.6,37.4,29,29.86,10.0,SW,4.6,-,N/A,,Mostly Cloudy,230,2013-06-24 18:25:00
12:56 PM,70.9,37.9,30,29.62,10.0,Calm,Calm,-,N/A,,Scattered Clouds,0,2013-06-24 18:56:00
1:56 PM,75.9,38.8,26,29.58,10.0,WSW,12.7,-,N/A,,Partly Cloudy,240,2013-06-24 19:56:00
2:24 PM,75.2,44.6,34,29.83,10.0,NNW,15.0,21.9,N/A,,Partly Cloudy,340,2013-06-24 20:24:00
2:34 PM,75.2,44.6,34,29.82,10.0,NNW,16.1,20.7,N/A,,Partly Cloudy,330,2013-06-24 20:34:00
2:56 PM,72.9,45.9,38,29.58,10.0,North,12.7,-,N/A,,Clear,350,2013-06-24 20:56:00
3:56 PM,75.9,45.0,33,29.56,10.0,NNW,10.4,-,N/A,,Clear,330,2013-06-24 21:56:00
4:56 PM,70.9,46.9,42,29.60,10.0,Variable,4.6,-,N/A,,Partly Cloudy,0,2013-06-24 22:56:00
5:56 PM,72.9,34.9,25,29.61,10.0,WSW,12.7,-,N/A,,Partly Cloudy,240,2013-06-24 23:56:00
6:42 PM,66.2,44.6,46,29.86,10.0,West,19.6,32.2,N/A,,Scattered Clouds,260,2013-06-25 00:42:00
6:56 PM,61.9,43.0,50,29.66,10.0,WSW,16.1,24.2,N/A,,Scattered Clouds,240,2013-06-25 00:56:00
7:56 PM,59.9,43.9,55,29.69,10.0,NNW,5.8,-,N/A,,Partly Cloudy,340,2013-06-25 01:56:00
8:56 PM,59.9,43.9,55,29.71,10.0,SW,9.2,-,0.00,Rain,Light Rain,230,2013-06-25 02:56:00
9:41 PM,55.4,46.4,72,29.98,10.0,SSW,5.8,-,0.00,Rain,Light Rain,200,2013-06-25 03:41:00
9:56 PM,54.9,46.9,75,29.76,10.0,South,8.1,-,0.01,Rain,Light Rain,170,2013-06-25 03:56:00
10:56 PM,52.9,47.8,83,29.76,10.0,South,6.9,-,0.00,,Mostly Cloudy,170,2013-06-25 04:56:00
11:56 PM,52.9,48.9,86,29.75,10.0,SSW,3.5,-,0.01,,Overcast,200,2013-06-25 05:56:00